| time (UTC) | temp F | wind direction | speed knots | gust knots | rain 1hr in | rain 24hr in | rain mn in | humidity % | barometer mb |
| 20260503213045 | 87 | 330 | 0.9 | 5.2 | 0.00 | 0.00 | 0.00 | 32 | 1011.3 |
| 20260503211605 | 86 | 108 | 2.6 | 7.0 | 0.00 | 0.00 | 0.00 | 31 | 1011.4 |
| 20260503210046 | 85 | 94 | 0.9 | 8.7 | 0.00 | 0.00 | 0.00 | 34 | 1011.6 |
| 20260503204548 | 85 | 75 | 4.3 | 8.7 | 0.00 | 0.00 | 0.00 | 29 | 1011.8 |
| 20260503203049 | 86 | 103 | 1.7 | 7.0 | 0.00 | 0.00 | 0.00 | 32 | 1012.0 |
| 20260503201543 | 85 | 103 | 2.6 | 6.1 | 0.00 | 0.00 | 0.00 | 28 | 1012.1 |
| 20260503200054 | 85 | 98 | 2.6 | 7.8 | 0.00 | 0.00 | 0.00 | 33 | 1012.3 |
| 20260503194547 | 85 | 154 | 1.7 | 7.0 | 0.00 | 0.00 | 0.00 | 33 | 1012.5 |
| 20260503193055 | 84 | 134 | 1.7 | 7.0 | 0.00 | 0.00 | 0.00 | 36 | 1012.5 |
| 20260503191545 | 84 | 0 | 1.7 | 7.8 | 0.00 | 0.00 | 0.00 | 31 | 1012.4 |
| 20260503190050 | 83 | 0 | 0.9 | 5.2 | 0.00 | 0.00 | 0.00 | 34 | 1012.8 |
| 20260503184558 | 83 | 126 | 1.7 | 3.5 | 0.00 | 0.00 | 0.00 | 35 | 1012.9 |
| 20260503183043 | 82 | 167 | 0.9 | 4.3 | 0.00 | 0.00 | 0.00 | 34 | 1012.8 |
| 20260503181607 | 82 | 145 | 1.7 | 5.2 | 0.00 | 0.00 | 0.00 | 35 | 1013.0 |
| 20260503180106 | 81 | 62 | 1.7 | 3.5 | 0.00 | 0.00 | 0.00 | 38 | 1013.1 |
| 20260503174549 | 80 | 52 | 1.7 | 4.3 | 0.00 | 0.00 | 0.00 | 38 | 1013.1 |
| 20260503173058 | 79 | 309 | 1.7 | 4.3 | 0.00 | 0.00 | 0.00 | 45 | 1012.9 |
| 20260503171545 | 77 | 5 | 1.7 | 7.0 | 0.00 | 0.00 | 0.00 | 46 | 1013.1 |
| 20260503081544 | 54 | 0 | 0.0 | 2.6 | 0.00 | 0.00 | 0.00 | 90 | 1013.5 |
| 20260503071557 | 55 | 210 | 0.9 | 2.6 | 0.00 | 0.00 | 0.00 | 91 | 1013.6 |
| 20260503054541 | 57 | 0 | 0.0 | 2.6 | 0.00 | 0.00 | 0.00 | 88 | 1014.0 |
| 20260503053048 | 58 | 268 | 0.9 | 1.7 | 0.00 | 0.00 | 0.00 | 87 | 1013.8 |
| 20260503051544 | 58 | 300 | 0.9 | 2.6 | 0.00 | 0.00 | 0.00 | 87 | 1014.0 |
| 20260503050053 | 58 | 0 | 0.0 | 2.6 | 0.00 | 0.00 | 0.00 | 86 | 1014.2 |
| 20260503044547 | 59 | 0 | 0.0 | 2.6 | 0.00 | 0.00 | 0.00 | 86 | 1014.3 |
| 20260503043056 | 59 | 0 | 0.9 | 3.5 | 0.00 | 0.00 | 0.00 | 84 | 1014.3 |
| 20260503041545 | 60 | 162 | 1.7 | 3.5 | 0.00 | 0.00 | 0.00 | 83 | 1014.3 |
| 20260503040052 | 61 | 215 | 1.7 | 2.6 | 0.00 | 0.00 | 0.00 | 81 | 1014.0 |
| 20260503034543 | 62 | 155 | 0.9 | 2.6 | 0.00 | 0.00 | 0.00 | 79 | 1013.8 |
| 20260503033042 | 64 | 0 | 0.0 | 7.0 | 0.00 | 0.00 | 0.00 | 74 | 1013.5 |
| 20260503031542 | 64 | 39 | 0.9 | 7.0 | 0.00 | 0.00 | 0.00 | 74 | 1013.7 |
| 20260503030059 | 65 | 54 | 1.7 | 9.6 | 0.00 | 0.00 | 0.00 | 71 | 1013.5 |
| 20260503024542 | 67 | 110 | 1.7 | 5.2 | 0.00 | 0.00 | 0.00 | 72 | 1013.2 |
| 20260503023046 | 67 | 152 | 1.7 | 4.3 | 0.00 | 0.00 | 0.00 | 72 | 1012.9 |
| 20260503021543 | 69 | 159 | 2.6 | 3.5 | 0.00 | 0.00 | 0.00 | 67 | 1012.4 |
| 20260503020042 | 72 | 209 | 0.0 | 3.5 | 0.00 | 0.00 | 0.00 | 64 | 1012.5 |
| 20260503014557 | 73 | 286 | 0.9 | 2.6 | 0.00 | 0.00 | 0.00 | 57 | 1012.4 |
| 20260503013041 | 73 | 249 | 0.9 | 2.6 | 0.00 | 0.00 | 0.00 | 55 | 1012.4 |
| 20260503011548 | 73 | 0 | 0.0 | 3.5 | 0.00 | 0.00 | 0.00 | 55 | 1012.5 |
| 20260503010053 | 73 | 5 | 2.6 | 6.1 | 0.00 | 0.00 | 0.00 | 53 | 1012.7 |
| 20260503004608 | 73 | 279 | 0.9 | 7.0 | 0.00 | 0.00 | 0.00 | 57 | 1012.6 |
| 20260503003053 | 73 | 34 | 1.7 | 7.0 | 0.00 | 0.00 | 0.00 | 56 | 1012.7 |
| 20260503001541 | 73 | 272 | 3.5 | 10.4 | 0.00 | 0.00 | 0.00 | 54 | 1012.7 |
| 20260503000047 | 73 | 309 | 2.6 | 8.7 | 0.00 | 0.00 | 0.00 | 52 | 1012.9 |
| 20260502234545 | 73 | 5 | 1.7 | 7.0 | 0.00 | 0.00 | 0.00 | 56 | 1013.0 |
| 20260502233044 | 72 | 348 | 1.7 | 7.8 | 0.00 | 0.00 | 0.00 | 56 | 1013.3 |
| 20260502231542 | 72 | 301 | 1.7 | 7.8 | 0.00 | 0.00 | 0.00 | 56 | 1013.4 |
| 20260502230044 | 72 | 318 | 1.7 | 8.7 | 0.00 | 0.00 | 0.00 | 54 | 1013.4 |
| 20260502224546 | 72 | 306 | 3.5 | 7.8 | 0.00 | 0.00 | 0.00 | 53 | 1013.8 |
| 20260502223050 | 71 | 306 | 5.2 | 8.7 | 0.00 | 0.00 | 0.00 | 55 | 1014.1 |
| 20260502221547 | 71 | 298 | 3.5 | 9.6 | 0.00 | 0.00 | 0.00 | 57 | 1014.3 |
| 20260502220049 | 70 | 303 | 4.3 | 8.7 | 0.00 | 0.00 | 0.00 | 59 | 1014.5 |
| 20260502214542 | 70 | 43 | 1.7 | 7.0 | 0.00 | 0.00 | 0.00 | 57 | 1014.7 |